Barnwell, SC

12:54 PM EDT on September 29, 2016 (GMT -0400)
Barnwell County

Weather History for KBNL - November, 2013

Change the Weather History Date:

Thursday, November 21, 2013

  Actual Average (KOGB) Record (KOGB)
Temperature  
Mean Temperature 57 °F 55 °F  
Max Temperature 64 °F 67 °F 81 °F (2011)
Min Temperature 50 °F 43 °F 26 °F (1968)
Degree Days  
Heating Degree Days 8 11  
Month to date heating degree days 170  
Since 1 July heating degree days 260  
Cooling Degree Days 0 0  
Month to date cooling degree days 12  
Year to date cooling degree days 2099  
Growing Degree Days 7 (Base 50)    
Moisture  
Dew Point 47 °F    
Average Humidity 70    
Maximum Humidity 82    
Minimum Humidity 59    
Precipitation  
Precipitation 0.00 in 0.10 in 1.99 in (2005)
Month to date precipitation 1.99  
Year to date precipitation 42.48  
Sea Level Pressure  
Sea Level Pressure 30.37 in    
Wind  
Wind Speed 7 mph (NE)    
Max Wind Speed 12 mph    
Max Gust Speed 17 mph    
Visibility 10 miles    
Events Rain    
T = Trace of Precipitation, MM = Missing Value Source: NWS Daily Summary

Daily Weather History Graph

Daily Weather History Graph

Search for Another Location

Airport or City:

Trip Planner

Search our weather history database for the weather conditions in past years. The results will help you decide how hot, cold, wet, or windy it might be!

Date:

Astronomy

Nov. 21, 2013 Rise Set
Actual Time 7:02 AM EST 5:20 PM EST
Civil Twilight 6:35 AM EST 5:47 PM EST
Nautical Twilight 6:05 AM EST 6:17 PM EST
Astronomical Twilight 5:35 AM EST 6:46 PM EST
Moon 8:54 PM EST (11/21) 10:08 AM EST (11/21)
Length of Visible Light 11h 11m
Length of Day
10h 18m
Waning Gibbous, 85% of the Moon is Illuminated
Nov 21
Waning Gibbous
Nov 25
Last Quarter
Dec 2
New
Dec 9
First Quarter
Dec 17
Full

Hourly Weather History & Observations

Time (EST) Temp. Dew Point Humidity Pressure Visibility Wind Dir Wind Speed Gust Speed Precip Events Conditions
12:15 AM 53.6 °F 41.0 °F 62% 30.35 in 10.0 mi NE 6.9 mph - N/A   Overcast
12:35 AM 53.6 °F 41.0 °F 62% 30.35 in 10.0 mi ENE 9.2 mph - N/A   Overcast
12:55 AM 53.6 °F 41.0 °F 62% 30.35 in 10.0 mi NE 6.9 mph - N/A   Overcast
1:15 AM 53.6 °F 41.0 °F 62% 30.35 in 10.0 mi NE 4.6 mph - N/A   Overcast
1:35 AM 53.6 °F 41.0 °F 62% 30.35 in 10.0 mi NE 9.2 mph - N/A   Overcast
1:55 AM 53.6 °F 41.0 °F 62% 30.35 in 10.0 mi NE 9.2 mph - N/A   Overcast
2:15 AM 53.6 °F 41.0 °F 62% 30.35 in 10.0 mi NNE 9.2 mph - N/A   Overcast
2:35 AM 53.6 °F 42.8 °F 67% 30.35 in 10.0 mi NE 10.4 mph - N/A   Overcast
2:55 AM 53.6 °F 41.0 °F 62% 30.35 in 10.0 mi NE 9.2 mph - N/A   Overcast
3:15 AM 53.6 °F 42.8 °F 67% 30.36 in 10.0 mi NE 9.2 mph - N/A   Overcast
3:35 AM 51.8 °F 41.0 °F 67% 30.36 in 10.0 mi NE 10.4 mph - N/A   Overcast
3:55 AM 51.8 °F 41.0 °F 67% 30.35 in 10.0 mi NE 9.2 mph - N/A   Overcast
4:15 AM 51.8 °F 41.0 °F 67% 30.36 in 10.0 mi NE 9.2 mph - N/A   Overcast
4:35 AM 51.8 °F 41.0 °F 67% 30.36 in 10.0 mi NE 11.5 mph - N/A   Overcast
4:55 AM 51.8 °F 41.0 °F 67% 30.36 in 10.0 mi NE 11.5 mph 17.3 mph N/A   Overcast
5:15 AM 51.8 °F 41.0 °F 67% 30.37 in 10.0 mi NE 10.4 mph - N/A   Overcast
5:35 AM 51.8 °F 41.0 °F 67% 30.37 in 10.0 mi NE 6.9 mph - N/A   Overcast
5:55 AM 51.8 °F 41.0 °F 67% 30.37 in 10.0 mi NE 8.1 mph - N/A   Overcast
6:15 AM 51.8 °F 41.0 °F 67% 30.38 in 10.0 mi NE 9.2 mph - N/A   Overcast
6:35 AM 51.8 °F 42.8 °F 71% 30.38 in 10.0 mi NE 8.1 mph - N/A   Overcast
6:55 AM 50.0 °F 42.8 °F 76% 30.38 in 10.0 mi NE 9.2 mph - N/A   Overcast
7:15 AM 50.0 °F 42.8 °F 76% 30.39 in 10.0 mi NE 11.5 mph - N/A   Overcast
7:35 AM 50.0 °F 42.8 °F 76% 30.39 in 10.0 mi NE 9.2 mph - N/A   Overcast
7:55 AM 50.0 °F 42.8 °F 76% 30.39 in 10.0 mi NE 11.5 mph - N/A   Overcast
8:15 AM 51.8 °F 42.8 °F 71% 30.40 in 10.0 mi NE 9.2 mph 16.1 mph N/A   Overcast
8:35 AM 51.8 °F 42.8 °F 71% 30.41 in 10.0 mi NE 8.1 mph - N/A   Overcast
8:55 AM 51.8 °F 42.8 °F 71% 30.41 in 10.0 mi NE 10.4 mph - N/A   Overcast
9:15 AM 51.8 °F 42.8 °F 71% 30.41 in 10.0 mi NE 9.2 mph - N/A   Overcast
9:35 AM 53.6 °F 44.6 °F 72% 30.41 in 10.0 mi NE 11.5 mph - N/A   Overcast
9:55 AM 53.6 °F 44.6 °F 72% 30.41 in 10.0 mi ENE 10.4 mph - N/A   Overcast
10:15 AM 55.4 °F 44.6 °F 67% 30.41 in 10.0 mi NE 11.5 mph - N/A   Mostly Cloudy
10:35 AM 55.4 °F 44.6 °F 67% 30.41 in 10.0 mi NE 10.4 mph - N/A   Overcast
10:55 AM 55.4 °F 46.4 °F 72% 30.41 in 10.0 mi NNE 8.1 mph - N/A   Mostly Cloudy
11:15 AM 57.2 °F 46.4 °F 67% 30.41 in 9.0 mi NE 6.9 mph - N/A Rain Light Rain
11:35 AM 57.2 °F 48.2 °F 72% 30.40 in 9.0 mi ENE 8.1 mph - N/A   Mostly Cloudy
11:55 AM 57.2 °F 46.4 °F 67% 30.39 in 10.0 mi Calm Calm - N/A   Scattered Clouds
12:15 PM 60.8 °F 48.2 °F 63% 30.38 in 10.0 mi NE 6.9 mph - N/A   Mostly Cloudy
12:35 PM 62.6 °F 48.2 °F 59% 30.37 in 10.0 mi ENE 5.8 mph - N/A   Scattered Clouds
12:55 PM 60.8 °F 48.2 °F 63% 30.37 in 10.0 mi NE 8.1 mph - N/A   Mostly Cloudy
1:15 PM 60.8 °F 48.2 °F 63% 30.37 in 10.0 mi NE 6.9 mph - N/A   Mostly Cloudy
1:35 PM 62.6 °F 50.0 °F 63% 30.36 in 10.0 mi NE 4.6 mph - N/A   Mostly Cloudy
1:55 PM 62.6 °F 50.0 °F 63% 30.35 in 10.0 mi ENE 8.1 mph - N/A   Scattered Clouds
2:15 PM 64.4 °F 50.0 °F 59% 30.34 in 10.0 mi NE 8.1 mph - N/A   Partly Cloudy
2:35 PM 64.4 °F 51.8 °F 64% 30.34 in 10.0 mi NE 8.1 mph - N/A   Scattered Clouds
2:55 PM 64.4 °F 51.8 °F 64% 30.34 in 10.0 mi Calm Calm - N/A   Mostly Cloudy
3:15 PM 64.4 °F 51.8 °F 64% 30.34 in 10.0 mi Calm Calm - N/A   Overcast
3:35 PM 64.4 °F 51.8 °F 64% 30.34 in 10.0 mi ENE 5.8 mph - N/A   Overcast
3:55 PM 64.4 °F 51.8 °F 64% 30.34 in 10.0 mi Calm Calm - N/A   Mostly Cloudy
4:15 PM 64.4 °F 51.8 °F 64% 30.34 in 10.0 mi ENE 6.9 mph - N/A   Overcast
4:35 PM 62.6 °F 51.8 °F 68% 30.34 in 10.0 mi NE 5.8 mph - N/A   Mostly Cloudy
4:55 PM 62.6 °F 51.8 °F 68% 30.34 in 10.0 mi NE 3.5 mph - N/A   Partly Cloudy
5:15 PM 62.6 °F 51.8 °F 68% 30.34 in 10.0 mi NE 4.6 mph - N/A   Partly Cloudy
5:35 PM 60.8 °F 51.8 °F 72% 30.35 in 10.0 mi NE 4.6 mph - N/A   Scattered Clouds
5:55 PM 59.0 °F 51.8 °F 77% 30.35 in 10.0 mi NNE 3.5 mph - N/A   Partly Cloudy
6:15 PM 59.0 °F 51.8 °F 77% 30.36 in 10.0 mi Calm Calm - N/A   Partly Cloudy
6:35 PM 59.0 °F 51.8 °F 77% 30.36 in 10.0 mi Calm Calm - N/A   Mostly Cloudy
6:55 PM 57.2 °F 51.8 °F 82% 30.36 in 10.0 mi Calm Calm - N/A   Scattered Clouds
7:15 PM 57.2 °F 51.8 °F 82% 30.37 in 10.0 mi Calm Calm - N/A   Partly Cloudy
7:35 PM 57.2 °F 51.8 °F 82% 30.37 in 10.0 mi Calm Calm - N/A   Scattered Clouds
7:55 PM 57.2 °F 50.0 °F 77% 30.37 in 10.0 mi Calm Calm - N/A   Mostly Cloudy
8:15 PM 57.2 °F 50.0 °F 77% 30.37 in 10.0 mi Calm Calm - N/A   Overcast
8:35 PM 57.2 °F 50.0 °F 77% 30.37 in 10.0 mi Calm Calm - N/A   Overcast
8:55 PM 57.2 °F 50.0 °F 77% 30.37 in 10.0 mi NNE 4.6 mph - N/A   Overcast
9:15 PM 57.2 °F 50.0 °F 77% 30.37 in 10.0 mi NE 6.9 mph - N/A   Overcast
9:35 PM 57.2 °F 50.0 °F 77% 30.38 in 10.0 mi NNE 5.8 mph - N/A   Overcast
9:55 PM 57.2 °F 50.0 °F 77% 30.38 in 10.0 mi NE 5.8 mph - N/A   Overcast
10:15 PM 57.2 °F 50.0 °F 77% 30.38 in 10.0 mi NE 4.6 mph - N/A   Overcast
10:35 PM 57.2 °F 50.0 °F 77% 30.38 in 10.0 mi NE 4.6 mph - N/A   Overcast
10:55 PM 57.2 °F 50.0 °F 77% 30.37 in 10.0 mi ENE 5.8 mph - N/A   Mostly Cloudy
11:15 PM 57.2 °F 50.0 °F 77% 30.36 in 10.0 mi ENE 5.8 mph - N/A   Scattered Clouds
11:35 PM 57.2 °F 50.0 °F 77% 30.36 in 10.0 mi ENE 4.6 mph - N/A   Clear
11:55 PM 57.2 °F 50.0 °F 77% 30.35 in 10.0 mi Calm Calm - N/A   Clear